[[{"header":{"parameterUnit":"m.s-1","parameterCategory":1,"la1":30.2991,"la2":30.254,"lo1":-89.0895,"lo2":-89.0444,"dy":0.0017,"dx":0.0017,"nx":28,"ny":28,"refTime":"2024-03-21T09:00:00:Z","depth":0,"parameterNumber":2,"parameterNumberName":"U-component_of_WINDS"},"data":[0,0,0,0,0,0,0,0,0,0,0,0,0,0,0,0,0,0,0,0,0,0,0,0,0,0,0,0,0,0,0,0,0,0,0,0,0,0,0,0,0,0,0,0,0,0,0,0,0,0,0,0,0,0,0,0,0,0,0.3393,0.3393,0,0.3396,0.3396,0.3396,0.3327,0.3325,0.3323,0.3321,0.3325,0.3327,0.3328,0,0,0,0,0,0,0,0,0,0,0,0,0,0.3328,0.3329,0.3393,0.3393,0.3393,0.3396,0.3396,0.3396,0.3327,0.3325,0.3323,0.332,0.3324,0.3326,0.3329,0,0,0,0,0,0,0,0,0,0,0,0,0,0.3346,0.333,0.3393,0.3359,0.3356,0.3396,0.3396,0.3396,0.3328,0.3325,0.3322,0.3319,0.3324,0.3326,0.3329,0.3402,0,0,0.3337,0.3338,0,0,0,0,0,0,0,0,0.3345,0.3348,0.3364,0.3361,0.3358,0.3358,0.3374,0.3398,0.3328,0.3338,0.3321,0.3318,0.3338,0.334,0.3346,0.3402,0.3402,0.3337,0.3339,0.334,0.3341,0,0,0,0,0,0,0,0.3344,0.3348,0.3394,0.3364,0.3361,0.3344,0.3343,0.3378,0.3354,0.3337,0.3332,0.3334,0.3336,0.3344,0.3346,0.3402,0.3337,0.334,0.3342,0.3343,0.3518,0.3521,0,0,0,0,0,0,0.3347,0.3347,0.3394,0.3394,0.3344,0.3347,0.3346,0.3361,0.3353,0.3349,0.3336,0.333,0.334,0.3343,0.3346,0.3431,0.334,0.3343,0.3344,0.3515,0.3518,0.3522,0,0,0,0,0,0,0.3346,0.3352,0.3394,0.3369,0.3373,0.3351,0.3368,0.3362,0.337,0.3352,0.3348,0.3348,0.3338,0.3342,0.3388,0.343,0.3344,0.3347,0.3511,0.3516,0.352,0.3601,0,0,0,0,0,0,0.3344,0.3352,0.3379,0.337,0.3375,0.3436,0.337,0.3364,0.3375,0.3368,0.3363,0.3359,0.3336,0.3385,0.3391,0.3432,0.3349,0.3507,0.3513,0.3519,0.3595,0.3608,0.3619,0,0,0,0,0,0.3342,0.3402,0.3381,0.3387,0.3408,0.3439,0.3441,0.3414,0.3378,0.3406,0.3394,0.3359,0.3424,0.339,0.3397,0.3439,0.3505,0.3512,0.3518,0.3589,0.3605,0.3619,0,0,0,0,0,0,0.3416,0.34,0.3377,0.3435,0.3439,0.3427,0.3461,0.3432,0.3446,0.3438,0.3404,0.3403,0.3456,0.3452,0.3414,0.3509,0.3458,0.3467,0.351,0.3525,0.3537,0.3537,0.3351,0,0,0,0,0,0.3439,0.3465,0.345,0.3503,0.3506,0.3483,0.3495,0.3474,0.3477,0.3478,0.347,0.3474,0.3495,0.351,0.3528,0.3594,0.3592,0.3626,0.3639,0.3649,0.3657,0.3691,0.3707,0.3544,0.3544,0.3544,0,0,0.3487,0.3481,0.35,0.3517,0.3518,0.3546,0.3485,0.3517,0.3537,0.3483,0.3526,0.3521,0.3523,0.3579,0.3604,0.3578,0.3701,0.3657,0.3666,0.3668,0.37,0.3715,0.3729,0.3548,0.3548,0.3547,0,0,0.3588,0.3587,0.3631,0.3633,0.3634,0.3619,0.363,0.3623,0.3617,0.366,0.362,0.3643,0.3681,0.3684,0.3691,0.3794,0.3763,0.3801,0.3865,0.39,0.3913,0.3924,0.3961,0.3975,0.3809,0.3809,0.3809,0,0.3648,0.3688,0.3657,0.3692,0.3701,0.3653,0.3698,0.3701,0.3709,0.3716,0.3687,0.3733,0.3731,0.3788,0.3814,0.382,0.3832,0.3802,0.3913,0.3924,0.3934,0.397,0.3984,0.3814,0.3813,0.3813,0.3812,0,0.3761,0.379,0.3825,0.3834,0.3847,0.3887,0.3863,0.388,0.3857,0.3845,0.389,0.3886,0.3903,0.3915,0.3893,0.3969,0.3953,0.3919,0.3867,0.3955,0.3988,0.4001,0.3821,0.3819,0.3818,0.3816,0,0,0.3909,0.3901,0.3914,0.3918,0.3916,0.3938,0.3976,0.3993,0.4008,0.4015,0.4046,0.4079,0.4048,0.4055,0.4034,0.4064,0.4147,0.4026,0.4026,0.4049,0.4231,0.4257,0.4273,0.4126,0.4128,0.413,0.4231,0,0.4008,0.4072,0.4046,0.4112,0.4139,0.4094,0.4126,0.4129,0.4119,0.414,0.4129,0.4153,0.4109,0.4114,0.4142,0.4131,0.4183,0.4123,0.4155,0.4156,0.4156,0.429,0.4317,0.4412,0.4243,0.4246,0.4247,0,0.4132,0.4144,0.4214,0.4208,0.4218,0.4248,0.4262,0.4282,0.4285,0.4275,0.4284,0.4256,0.4293,0.4241,0.4291,0.4252,0.4263,0.426,0.4263,0.4265,0.4207,0.4296,0.4442,0.4456,0.4267,0.4265,0.4264,0,0.4233,0.4267,0.4313,0.4318,0.4312,0.4335,0.4333,0.4333,0.4345,0.4357,0.4364,0.438,0.439,0.4403,0.438,0.4344,0.4434,0.438,0.4427,0.4428,0.4448,0.4448,0.4599,0.4456,0.4455,0.4455,0.4455,0,0.4347,0.4391,0.4359,0.4387,0.4436,0.4405,0.4454,0.4448,0.4448,0.4474,0.4436,0.4462,0.443,0.4453,0.4435,0.448,0.4484,0.4478,0.4473,0.4481,0.4482,0.4488,0.4481,0.4459,0.4458,0.4457,0.4457,0,0.4468,0.4449,0.4496,0.4487,0.4486,0.4522,0.4514,0.454,0.4527,0.4561,0.4568,0.4548,0.4573,0.4551,0.4575,0.4563,0.4623,0.4608,0.4622,0.4618,0.4667,0.4663,0.4827,0.4848,0.4692,0.4693,0.4694,0,0.4542,0.4575,0.457,0.4585,0.4586,0.4611,0.4623,0.4595,0.4609,0.4615,0.464,0.4662,0.4678,0.4719,0.4707,0.4726,0.4711,0.4767,0.4713,0.4721,0.4712,0.4711,0.4714,0.4779,0.478,0.4782,0.4783,0,0.4675,0.4664,0.4683,0.4699,0.4715,0.4726,0.4734,0.4749,0.472,0.4738,0.4763,0.4775,0.48,0.4822,0.4836,0.4835,0.4805,0.48,0.4812,0.4822,0.4829,0.4826,0.4652,0.4797,0.4795,0.4794,0.4794,0.4793,0.4775,0.4803,0.4804,0.4826,0.483,0.4838,0.4862,0.4853,0.4873,0.4891,0.4873,0.4904,0.4906,0.4922,0.4925,0.4948,0.4925,0.4942,0.4946,0.4951,0.4958,0.4825,0.4951,0.495,0.495,0.495,0.4949,0,0.4907,0.4905,0.4926,0.4939,0.4957,0.4927,0.4935,0.4952,0.498,0.4984,0.5,0.503,0.5051,0.5041,0.506,0.5081,0.5067,0.5086,0.5085,0.5085,0.4978,0.4966,0.5097,0.5097,0.5097,0.5097,0.5097,0.5097,0.4977,0.5022,0.5011,0.5058,0.5056,0.5086,0.5093,0.5101,0.5104,0.5139,0.5156,0.5149,0.5148,0.5167,0.5185,0.5182,0.519,0.5215,0.5207,0.5107,0.5092,0.5079,0.5067,0.5217,0.5217,0.5311,0.5312,0.5313]},{"header":{"parameterUnit":"m.s-1","parameterCategory":1,"la1":30.2991,"la2":30.254,"lo1":-89.0895,"lo2":-89.0444,"dy":0.0017,"dx":0.0017,"nx":28,"ny":28,"refTime":"2024-03-21T09:00:00:Z","depth":0,"parameterNumber":3,"parameterNumberName":"V-component_of_WINDS"},"data":[0,0,0,0,0,0,0,0,0,0,0,0,0,0,0,0,0,0,0,0,0,0,0,0,0,0,0,0,0,0,0,0,0,0,0,0,0,0,0,0,0,0,0,0,0,0,0,0,0,0,0,0,0,0,0,0,0,0,-1.304,-1.304,0,-1.3032,-1.3032,-1.3032,-1.305,-1.3051,-1.3051,-1.3052,-1.3042,-1.3041,-1.304,0,0,0,0,0,0,0,0,0,0,0,0,0,-1.307,-1.3069,-1.304,-1.304,-1.3039,-1.3032,-1.3032,-1.3031,-1.305,-1.3051,-1.3052,-1.3052,-1.3042,-1.3041,-1.304,0,0,0,0,0,0,0,0,0,0,0,0,0,-1.3059,-1.3069,-1.304,-1.3048,-1.3049,-1.3032,-1.3032,-1.3031,-1.305,-1.3051,-1.3052,-1.3053,-1.3042,-1.3041,-1.304,-1.3014,0,0,-1.3036,-1.3036,0,0,0,0,0,0,0,0,-1.3059,-1.3058,-1.3047,-1.3047,-1.3048,-1.3043,-1.3039,-1.3026,-1.305,-1.3049,-1.3052,-1.3053,-1.3041,-1.304,-1.3037,-1.3014,-1.3013,-1.3036,-1.3035,-1.3035,-1.3035,0,0,0,0,0,0,0,-1.306,-1.3058,-1.3036,-1.3047,-1.3047,-1.3052,-1.3051,-1.3036,-1.304,-1.3049,-1.3051,-1.305,-1.3042,-1.3038,-1.3037,-1.3013,-1.3036,-1.3035,-1.3034,-1.3034,-1.2969,-1.2968,0,0,0,0,0,0,-1.306,-1.3058,-1.3037,-1.3036,-1.3056,-1.305,-1.305,-1.3044,-1.3041,-1.3041,-1.3049,-1.3051,-1.304,-1.3038,-1.3036,-1.3006,-1.3035,-1.3034,-1.3033,-1.297,-1.2969,-1.2968,0,0,0,0,0,0,-1.3061,-1.3058,-1.3037,-1.3048,-1.3045,-1.3049,-1.3042,-1.3043,-1.3039,-1.304,-1.3041,-1.3044,-1.304,-1.3038,-1.302,-1.3006,-1.3033,-1.3032,-1.2971,-1.297,-1.2969,-1.2945,0,0,0,0,0,0,-1.3061,-1.3058,-1.3048,-1.3047,-1.3045,-1.3021,-1.3041,-1.3042,-1.3037,-1.3039,-1.3036,-1.3036,-1.3041,-1.3022,-1.3019,-1.3005,-1.3031,-1.2973,-1.2971,-1.2969,-1.2947,-1.2943,-1.2939,0,0,0,0,0,-1.3062,-1.3041,-1.3048,-1.3045,-1.3033,-1.302,-1.3018,-1.3025,-1.3036,-1.3026,-1.3027,-1.3036,-1.3008,-1.302,-1.3016,-1.3002,-1.2974,-1.2971,-1.2969,-1.2948,-1.2943,-1.2939,0,0,0,0,0,0,-1.3039,-1.3041,-1.3048,-1.3027,-1.3023,-1.3023,-1.3011,-1.3019,-1.3012,-1.3014,-1.3022,-1.3021,-1.3001,-1.3,-1.3012,-1.2977,-1.2993,-1.299,-1.2978,-1.2973,-1.297,-1.2969,-1.303,0,0,0,0,0,-1.3032,-1.3022,-1.3024,-1.3005,-1.3003,-1.3007,-1.3002,-1.3007,-1.3003,-1.3002,-1.3001,-1.2997,-1.2987,-1.298,-1.2972,-1.2947,-1.2947,-1.2936,-1.2932,-1.2929,-1.2926,-1.2913,-1.2908,-1.2961,-1.2961,-1.2961,0,0,-1.3016,-1.3016,-1.3009,-1.3,-1.2998,-1.2987,-1.3006,-1.2993,-1.2985,-1.3,-1.2982,-1.2982,-1.2978,-1.2956,-1.2947,-1.2955,-1.2911,-1.2926,-1.2923,-1.2922,-1.291,-1.2905,-1.29,-1.2959,-1.296,-1.296,0,0,-1.2982,-1.2981,-1.2965,-1.2963,-1.296,-1.2963,-1.2959,-1.2958,-1.2959,-1.2942,-1.2953,-1.2943,-1.2926,-1.2923,-1.2919,-1.2884,-1.2892,-1.2881,-1.2861,-1.2848,-1.2844,-1.284,-1.2827,-1.2822,-1.2879,-1.2879,-1.2879,0,-1.2962,-1.2946,-1.2955,-1.2942,-1.2937,-1.2952,-1.2935,-1.2933,-1.2926,-1.2923,-1.2932,-1.2912,-1.291,-1.2888,-1.288,-1.2876,-1.2872,-1.2881,-1.2844,-1.284,-1.2837,-1.2824,-1.282,-1.2877,-1.2877,-1.2877,-1.2878,0,-1.2922,-1.2911,-1.2898,-1.2893,-1.2887,-1.2872,-1.2879,-1.2872,-1.2878,-1.288,-1.2863,-1.2862,-1.2853,-1.2849,-1.2854,-1.2827,-1.2832,-1.2843,-1.2858,-1.283,-1.2819,-1.2814,-1.2875,-1.2876,-1.2876,-1.2876,0,0,-1.2871,-1.2872,-1.2867,-1.2865,-1.2863,-1.2854,-1.2841,-1.2833,-1.2826,-1.2822,-1.281,-1.2796,-1.2806,-1.2802,-1.2807,-1.2796,-1.2769,-1.2808,-1.2808,-1.28,-1.2739,-1.273,-1.2724,-1.2775,-1.2774,-1.2773,-1.2739,0,-1.2836,-1.2812,-1.282,-1.2796,-1.2786,-1.28,-1.2788,-1.2786,-1.2788,-1.2779,-1.2782,-1.2771,-1.2785,-1.2783,-1.2773,-1.2774,-1.2756,-1.2777,-1.2763,-1.2762,-1.2762,-1.2718,-1.2709,-1.2676,-1.2734,-1.2734,-1.2733,0,-1.2791,-1.2786,-1.2761,-1.2762,-1.2758,-1.2747,-1.2741,-1.2733,-1.273,-1.2733,-1.2728,-1.2737,-1.2723,-1.274,-1.2721,-1.2734,-1.273,-1.273,-1.2729,-1.2726,-1.2745,-1.2714,-1.2666,-1.266,-1.2726,-1.2727,-1.2727,0,-1.2755,-1.2742,-1.2726,-1.2724,-1.2724,-1.2716,-1.2716,-1.2715,-1.271,-1.2705,-1.2701,-1.2694,-1.269,-1.2684,-1.269,-1.2702,-1.267,-1.2688,-1.2671,-1.267,-1.2662,-1.2662,-1.2611,-1.2661,-1.2661,-1.2661,-1.2661,0,-1.2715,-1.2698,-1.271,-1.2699,-1.2681,-1.2692,-1.2674,-1.2675,-1.2674,-1.2664,-1.2676,-1.2666,-1.2676,-1.2667,-1.2672,-1.2655,-1.2653,-1.2654,-1.2655,-1.2652,-1.2652,-1.2648,-1.265,-1.266,-1.266,-1.266,-1.266,0,-1.2671,-1.2678,-1.266,-1.2663,-1.2663,-1.265,-1.2652,-1.2643,-1.2647,-1.2634,-1.2631,-1.2637,-1.2627,-1.2633,-1.2623,-1.2626,-1.2604,-1.2609,-1.2604,-1.2605,-1.2588,-1.2589,-1.2531,-1.2524,-1.2579,-1.2579,-1.2578,0,-1.2643,-1.2631,-1.2633,-1.2628,-1.2627,-1.2618,-1.2613,-1.2623,-1.2618,-1.2615,-1.2605,-1.2597,-1.259,-1.2574,-1.2577,-1.2569,-1.2573,-1.2554,-1.2572,-1.2569,-1.2572,-1.2572,-1.257,-1.2549,-1.2549,-1.2548,-1.2548,0,-1.2594,-1.2598,-1.2591,-1.2586,-1.258,-1.2576,-1.2573,-1.2568,-1.2578,-1.2571,-1.2561,-1.2556,-1.2547,-1.2538,-1.2532,-1.2531,-1.2541,-1.2542,-1.2538,-1.2534,-1.2531,-1.2531,-1.2593,-1.2543,-1.2544,-1.2544,-1.2544,-1.2544,-1.2557,-1.2547,-1.2547,-1.2539,-1.2538,-1.2535,-1.2526,-1.253,-1.2522,-1.2515,-1.2522,-1.251,-1.2509,-1.2502,-1.25,-1.2491,-1.2499,-1.2493,-1.2491,-1.2489,-1.2486,-1.2534,-1.249,-1.249,-1.249,-1.2491,-1.2491,0,-1.2507,-1.2508,-1.2501,-1.2497,-1.2491,-1.2502,-1.2499,-1.2493,-1.2483,-1.2481,-1.2475,-1.2464,-1.2456,-1.2459,-1.2452,-1.2444,-1.2448,-1.2442,-1.2442,-1.2441,-1.248,-1.2484,-1.2438,-1.2438,-1.2438,-1.2438,-1.2438,-1.2438,-1.248,-1.2464,-1.2469,-1.2452,-1.2454,-1.2443,-1.244,-1.2438,-1.2437,-1.2424,-1.2418,-1.242,-1.2421,-1.2414,-1.2407,-1.2408,-1.2404,-1.2396,-1.2398,-1.2433,-1.2439,-1.2443,-1.2447,-1.2395,-1.2395,-1.236,-1.236,-1.236]}]]